This is the latest recevied weather packets stored in our database for station/object IZ1UQG-N2. If no packets are shown the sender has not sent any weather packets the latest 10 day(s).
| Time | Temp. | Humidity | Pressure | Rain* | Wind** | Luminosity | Snow |
|---|---|---|---|---|---|---|---|
| 1778340420 | 22.22° C | 47% | 1012.2 hPa | 0 mm | - | 197 W/m² | - |
| 1778340360 | 22.22° C | 47% | 1012.2 hPa | 0 mm | - | 179 W/m² | - |
| 1778340300 | 22.22° C | 47% | 1012.2 hPa | 0 mm | - | 181 W/m² | - |
| 1778340293 | 22.22° C | 47% | 1012.2 hPa | 0 mm | - | 181 W/m² | - |
| 1778340239 | 22.22° C | 47% | 1012.2 hPa | 0 mm | - | 258 W/m² | - |
| 1778340179 | 22.22° C | 47% | 1012.2 hPa | 0 mm | - | 213 W/m² | - |
| 1778340119 | 22.22° C | 46% | 1012.3 hPa | 0 mm | - | 232 W/m² | - |
| 1778340115 | 22.22° C | 46% | 1012.3 hPa | 0 mm | - | 232 W/m² | - |
| 1778340060 | 22.22° C | 46% | 1012.3 hPa | 0 mm | - | 174 W/m² | - |
| 1778340000 | 22.22° C | 47% | 1012.3 hPa | 0 mm | - | 174 W/m² | - |
| 1778339940 | 22.22° C | 47% | 1012.2 hPa | 0 mm | - | 174 W/m² | - |
| 1778339933 | 22.22° C | 47% | 1012.2 hPa | 0 mm | - | 174 W/m² | - |
| 1778339879 | 22.22° C | 47% | 1012.2 hPa | 0 mm | - | 174 W/m² | - |
| 1778339819 | 22.22° C | 47% | 1012.1 hPa | 0 mm | - | 176 W/m² | - |
| 1778339759 | 22.22° C | 47% | 1012.2 hPa | 0 mm | - | 172 W/m² | - |
| 1778339754 | 22.22° C | 47% | 1012.2 hPa | 0 mm | - | 172 W/m² | - |
| 1778339698 | 22.22° C | 47% | 1012.1 hPa | 0 mm | - | 171 W/m² | - |
| 1778339638 | 22.22° C | 47% | 1012.1 hPa | 0 mm | - | 171 W/m² | - |
| 1778339578 | 22.22° C | 47% | 1012 hPa | 0 mm | - | 167 W/m² | - |
| 1778339574 | 22.22° C | 47% | 1012 hPa | 0 mm | - | 167 W/m² | - |
| 1778339520 | 22.22° C | 47% | 1012.2 hPa | 0 mm | - | 165 W/m² | - |
| 1778339460 | 22.22° C | 47% | 1012.2 hPa | 0 mm | - | 165 W/m² | - |
| 1778339400 | 22.22° C | 47% | 1012.2 hPa | 0 mm | - | 169 W/m² | - |
| 1778339393 | 22.22° C | 47% | 1012.2 hPa | 0 mm | - | 169 W/m² | - |
| 1778339339 | 22.22° C | 47% | 1012.1 hPa | 0 mm | - | 171 W/m² | - |
* Rain latest hour (hover to see other rain measurements)
** Current wind speed in m/s (hover to see current wind gust speed)